Location: ??????????
(44.2167°N, 135.5333°E)
Time: 14:44:01
(UTC+00:00)

Cosmos 1515 - Pass Details

Date: 15 June 2025
Orbit: 307 x 312 km, 82.5° (Epoch: 16 July)

Event Time Altitude Azimuth Distance (km) Brightness Sun altitude
Rises 17:55:08 0° 339° (NNW) 2,118 7.2 -11.3°
Reaches altitude 10° 17:57:18 10° 324° (NW) 1,265 5.8 -11.0°
Maximum altitude 17:59:33 23° 268° (W) 750 4.1 -10.8°
Enters shadow 18:00:36 18° 233° (SW) 880 4.3 -10.6°
